Weather in Terskoye

Russia / Tambov Oblast     52°46′52″N   40°38′31″E
temp.,
°C
wind,
m/s
gust,
m/s
humid.,
%
clouds,
%
prec.,
mm/h
press.,
hPa
HPBL,
m
3 march, wed
wed300:00−1nw5109598 0.3 1009374
03:00−3nw5119678 0.3 1010343
06:00−2nw61295100 0.1 1011647
09:00−3nnw61286100 0.5 1014737
12:00−3nnw6118827 0.0 1015668
15:00−3nw6108536 0.0 1016837
18:00−5w479045 0.0 1016139
21:00−4wsw4109657 0.0 1016269
4 march, thu
thu400:00−2wsw51094100 0.1 1014492
03:00−3wsw61292100 0.1 1012555
06:00−2wsw81595100 0.1 1009598
09:00−2wsw81690100 0.3 1008529
12:00+1wsw8158689 0.0 1006856
15:00+1wsw8148994 0.0 1005841
18:00+1wsw61391100 0.0 1004710
21:00+1wsw61292100 0.1 1003636
5 march, fri
fri500:000sw51099100 0.4 1001381
03:00+1w4998100 1.8 1000352
06:000w61097100 0.8 1002500
09:00−4n489599 1.1 1005338
12:00−2nnw349194 0.0 1007409
15:00−2nnw248979 0.0 1010499
18:00−6nw118944 0.0 101121
21:00−6w228960 0.0 101321
6 march, sat
sat600:00−6nnw3395100 0.0 101477
03:00−8n2388100 0.0 101554
06:00−10n2386100 0.0 101521
09:00−10nnw248995 0.0 1016123
12:00−7nnw24841 0.0 1015284
15:00−5nnw12790 0.0 1015405
18:00−9ene118765 0.0 101521
21:00−8nne249682 0.4 1017183
7 march, sun
sun700:00−11nnw379299 0.3 1017180
03:00−14wnw228966 0.3 101821
06:00−13sw47920 0.0 1016132
09:00−8sw7148335 0.0 1013629
12:00−4sw101769100 0.0 10091117
15:00−3sw101976100 0.0 10051298
18:00−3wsw112090100 0.3 10011293
21:00−2wsw101981100 0.6 9991205